Regional Weather Roundup
Issued by NWS San Angelo, TX

Home | Current Version | Previous Version | Text Only | Print | Product List | Glossary On
Versions: 1 2 3 4 5 6 7 8 9 10 11 12 13 14 15 16 17 18 19 20 21 22 23 24 25 26 27 28 29 30 31 32 33 34 35 36 37 38 39 40 41 42 43 44 45 46 47 48 49 50
000
ASUS44 KSJT 230502
RWRSJT
WEST CENTRAL TEXAS REGIONAL WEATHER ROUNDUP
NATIONAL WEATHER SERVICE SAN ANGELO TX
1200 AM CDT SAT MAY 23 2015

NOTE: "FAIR" INDICATES FEW OR NO CLOUDS BELOW 12,000 FEET WITH NO
SIGNIFICANT WEATHER AND/OR OBSTRUCTIONS TO VISIBILITY.

TXZ049-054-064>066-071>073-076>078-098-099-113-114-127-128-139-140-
154-155-168>170-230600
...LOCATIONS ACROSS WEST CENTRAL TEXAS...

CITY           SKY/WX    TMP DP  RH WIND       PRES   REMARKS
SAN ANGELO     MOCLDY    70  66  87 E7        30.03F
ABILENE        CLOUDY    70  67  90 SE16      30.05F
DYESS AFB      CLOUDY    70  64  79 S13       30.04S
JUNCTION       MOCLDY    73  70  90 SE8       30.04F
SWEETWATER     CLOUDY    70  69  96 SE12G18   30.09S
BROWNWOOD      NOT AVBL
COLEMAN        CLOUDY    71  70  97 SE12G17   30.07S
SONORA         NOT AVBL
OZONA          NOT AVBL
BRADY          CLOUDY    72  72 100 SE12      30.06R
$$

TEXAS PANHANDLE/OKLAHOMA PANHANDLE

CITY           SKY/WX    TMP DP  RH WIND       PRES   REMARKS
AMARILLO       FOG       58  57  97 SE16      30.09R VSB 1/2
BORGER         CLOUDY    60  57  89 S8        30.08F
CANADIAN       CLOUDY    57  57  98 SE8       30.09F FOG
DALHART        MOCLDY    57  53  86 SE14      30.06F
DUMAS          MOCLDY    56  55  95 SE14      30.06F
GUYMON         NOT AVBL
HEREFORD       NOT AVBL
PAMPA          NOT AVBL
PERRYTON       NOT AVBL
$$

SOUTHERN PANHANDLE/SOUTH PLAINS/ROLLING PLAINS

CITY           SKY/WX    TMP DP  RH WIND       PRES   REMARKS
LUBBOCK        DRZL/FOG  60  60 100 E13       30.07R VSB 1/4
SNYDER         NOT AVBL
CHILDRESS      FOG       57  57 100 SE10      30.09F VSB 1/4
SEMINOLE       CLOUDY    66  65  97 SE7       30.03S
$$

PERMIAN BASIN

CITY           SKY/WX    TMP DP  RH WIND       PRES   REMARKS
MIDLAND        CLOUDY    70  64  81 SE20      30.00S
ODESSA         CLOUDY    70  63  78 SE20G29   29.99F
WINK           CLOUDY    72  62  71 SE20G28   29.93F
$$

FAR WEST/SOUTHWEST MOUNTAINS/TRANS PECOS

CITY           SKY/WX    TMP DP  RH WIND       PRES   REMARKS
ALPINE         PTCLDY    68  61  79 S12G20    30.08R
DRYDEN           N/A     76  68  76 E13G22    29.94F
EL PASO        CLOUDY    79  12   8 W18G32    29.93R
FORT STOCKTON  MOCLDY    71  65  81 SE23G33   29.93F
GUADALUPE PASS CLOUDY    61  61 100 NE29      30.05R FOG
MARFA          PTCLDY    64  61  88 S6        30.08R
PECOS          NOT AVBL
$$

DALLAS/FORT WORTH METROPLEX

CITY           SKY/WX    TMP DP  RH WIND       PRES   REMARKS
DFW AIRPORT    MOCLDY    66  66 100 E5        30.09F
FTW MEACHAM    CLOUDY    68  66  93 E7        30.08F FOG
DAL-EXECUTIVE  MOCLDY    71  67  87 SE10      30.09F
GRAND PRAIRIE  MOCLDY    71  69  93 SE7       30.11F
ADDISON        CLOUDY    70  66  88 E8        30.12F
MESQUITE       CLOUDY    71  67  88 SE8       30.11S
LANCASTER      CLOUDY    71  65  83 SE6       30.11F
$$

NORTH CENTRAL TEXAS

CITY           SKY/WX    TMP DP  RH WIND       PRES   REMARKS
SHRMAN/DENISON CLOUDY    62  62 100 E6        30.13F FOG
GAINESVILLE    CLOUDY    61  60  96 E5        30.14F
BRIDGEPORT     CLOUDY    62  62 100 CALM      30.12F FOG
DENTON         LGT RAIN  65  63  93 NE6       30.10F
WAXAHACHIE     CLOUDY    70  69  96 E7        30.11F
GRANBURY         N/A     69  67  93 CALM      30.10S
$$

WESTERN NORTH TEXAS

CITY           SKY/WX    TMP DP  RH WIND       PRES   REMARKS
WICHITA FALLS  CLOUDY    60  59  96 E12       30.10S
VERNON         CLOUDY    60  56  88 E9        30.11S
BRECKENRIDGE   CLOUDY    69  69  98 SE10      30.06F FOG
COMANCHE       CLOUDY    70  70 100 SE8       30.09S
$$

CENTRAL AND SOUTH CENTRAL TEXAS

CITY           SKY/WX    TMP DP  RH WIND       PRES   REMARKS
AUSTIN/BERGSTM CLOUDY    74  72  93 SE10      30.07R
WACO           MOCLDY    72  68  87 SE10      30.09S
HILLSBORO      MOCLDY    71  66  82 E8        30.10S
TEMPLE         CLOUDY    72  64  78 SE12      30.08S
KILLEEN-GRAY   CLOUDY    71  70  95 SE14      30.08S
FORT HOOD      CLOUDY    71  69  93 SE10      30.07F
GEORGETOWN     CLOUDY    73  72  94 SE7       30.07F
LAGO VISTA     CLOUDY    73  71  92 SE8       30.09F
SAN MARCOS     MOCLDY    73  70  88 SE10      30.08S
NEW BRAUNFELS  CLOUDY    76  72  87 SE9       30.05S
RANDOLPH AFB   NOT AVBL
SAN ANTONIO    CLOUDY    77  73  87 SE10      30.07R
STINSON        CLOUDY    77  73  87 E12       30.03S
PLEASANTON     NOT AVBL
LA GRANGE      NOT AVBL
GIDDINGS       MOCLDY    73  70  91 SE6       30.12S FOG
$$

EAST TEXAS

CITY           SKY/WX    TMP DP  RH WIND       PRES   REMARKS
PARIS          PTCLDY    63  57  82 E7        30.15S
CLARKSVILLE    NOT AVBL
TYLER          CLEAR     70  64  81 SE10      30.13S
LONGVIEW       MOCLDY    70  65  84 SE7       30.15S
PALESTINE      PTCLDY    70  67  91 E7        30.14F
NACOGDOCHES    PTCLDY    70  64  83 E6        30.14S
$$

TEXAS HILL COUNTRY AND EDWARDS PLATEAU

CITY           SKY/WX    TMP DP  RH WIND       PRES   REMARKS
LLANO          NOT AVBL
HORSESHOE BAY  CLOUDY    74  71  90 SE8G16    30.07F
KERRVILLE      CLOUDY    74  71  91 SE8       30.08S
FREDERICKSBRG  NOT AVBL
ROCKSPRINGS    NOT AVBL
HONDO          CLOUDY    76  73  91 SE14      30.07R
UVALDE         CLOUDY    75  74  95 E8        30.05R
DEL RIO        CLOUDY    78  70  76 E10       29.99R
$$

SOUTHEAST TEXAS

CITY           SKY/WX    TMP DP  RH WIND       PRES   REMARKS
COLLEGE STN    PTCLDY    72  68  87 SE10      30.09F
CALDWELL       NOT AVBL
CROCKETT       NOT AVBL
BRENHAM        CLEAR     73  71  93 E5        30.10F
HUNTSVILLE     CLEAR     71  67  87 CALM      30.12S
CONROE         MOCLDY    72  68  87 E5        30.11F
HOUSTON BUSH   PTCLDY    73  71  93 E10       30.09F
HOUSTON HOBBY  MOCLDY    76  74  93 E5        30.09S
PERLAND        PTCLDY    77  74  90 E6        30.11S
WHARTON        MOCLDY    74  73  94 E7        30.09S
$$

THE UPPER TEXAS COAST

CITY           SKY/WX    TMP DP  RH WIND       PRES   REMARKS
ORANGE         CLEAR     72  69  91 NE3       30.15S
PORT ARTHUR    PTCLDY    74  70  87 E8        30.12S
GALVESTON      MOCLDY    79  76  90 E14       30.11S
ANGLETON       PTCLDY    74  74 100 E5        30.08F
BAY CITY       MOCLDY    77  77 100 E5        30.07F
$$

TEXAS COASTAL BEND, RIO GRANDE PLAINS DEEP SOUTH TEXAS

CITY           SKY/WX    TMP DP  RH WIND       PRES   REMARKS
VICTORIA       MOCLDY    75  75 100 E7        30.06S
BEEVILLE       MOCLDY    76  76 100 E7        30.05R
ROCKPORT       PTCLDY    80  75  84 SE16      30.04R
PORT ARANSAS   MOCLDY    80  76  90 SE10G18   30.04R
PORT LAVACA    MOCLDY    75  73  94 SE8       30.06S
CORPUS CHRISTI MOCLDY    79  75  87 SE9       30.03R
KINGSVILLE NAS PTCLDY    79  78  97 SE6       30.03R
COTULLA        CLOUDY    78  74  87 SE10      30.02R
LAREDO         CLOUDY    80  73  79 SE12      30.03R
BROWNSVILLE    MOCLDY    80  75  84 SE10      30.03R
PORT ISABEL    MOCLDY    80  76  87 SE9       30.03R
HEBBRONVILLE   NOT AVBL
MCALLEN        PTCLDY    79  74  84 SE9       30.03R
WESLACO        NOT AVBL
FALFURRIAS     MOCLDY    77  74  91 SE3       30.03R
EDINBURG       PTCLDY    78  74  85 SE5       30.03R
$$


USA.gov is the U.S. government's official web portal to all federal, state and local government web resources and services.